Tracking 19575 objects as of 18-Feb-2019
HD Live streaming from Space Station
objects crossing your sky now

JILIN-01-09

Track JILIN-01-09 now!
10-day predictions


NORAD ID: 43943
Int'l Code: 2019-005B
Perigee: 528.2 km
Apogee: 547.9 km
Inclination: 97.5 °
Period: 95.3 minutes
Semi major axis: 6909 km
RCS: Unknown
Launch date: January 21, 2019
Source: People's Republic of China (PRC)
Launch site: Jiuquan Satellite Launch Center, China (JSC)
aabbcc
Your satellite tracking list
Your tracking list is empty




NASA's NSSDC Master Catalog

Two Line Element Set (TLE):
1 43943U 19005B   19048.96842068 -.00000059 +00000-0 +34748-6 0  9990
2 43943 097.5089 147.5962 0014264 185.5371 281.9020 15.11738612004184
Source of the keplerian elements: AFSPC